QPF
0.00 0.00 0.01 0.00 0.00 0.00 0.00 0.00 0.00 0.00 0.00 0.00 0.00 0.00 0.00 0.00 0.00 0.00 0.00 0.00 0.00 0.00 0.00 0.00 0.00 0.00 0.00 0.00 0.00 0.00 0.00 0.00 0.00 0.00 0.00 0.00 0.00 0.00 0.00 0.00 0.00 0.00 0.00 0.00 0.00 0.00 0.00 0.00 0.00
0.00 0.00 0.00 0.00 0.00 0.00 0.00 0.00 0.00 0.00 0.00 0.00 0.00 0.00 0.00 0.00 0.00 0.00 0.00 0.00 0.00 0.00 0.00 0.00 0.00 0.00 0.00 0.00 0.00 0.00 0.00 0.00 0.00 0.00 0.00 0.00 0.00 0.00 0.00 0.00 0.00 0.00 0.00 0.00 0.00 0.00 0.00 0.00 0.00
0.00 0.00 0.00 0.00 0.00 0.00 0.00 0.00 0.00 0.00 0.00 0.00 0.00 0.00 0.00 0.00 0.00 0.00 0.00 0.00 0.00 0.00 0.00 0.00 0.00 0.00 0.00 0.00 0.00 0.00 0.00 0.00 0.00 0.00 0.00 0.00 0.00 0.00 0.00 0.00 0.00 0.00 0.00 0.00 0.00 0.00 0.00 0.00 0.00
0.00 0.00 0.00 0.00 0.00 0.00 0.00 0.00 0.00 0.00 0.00 0.00 0.00 0.00 0.00 0.00 0.00 0.00 0.00 0.00 0.00 0.00 0.00 0.00 0.00 0.00 0.00 0.00 0.00 0.00 0.00 0.00 0.00 0.00 0.00 0.00 0.00 0.00 0.00 0.00 0.00 0.00 0.00 0.00 0.00 0.00 0.00 0.00 0.00
0.00 0.00 0.00 0.00 0.00 0.00 0.00 0.00 0.00 0.00 0.00 0.00 0.00 0.00 0.00 0.00 0.00 0.00 0.00 0.00 0.00 0.00 0.00 0.00 0.00 0.00 0.00 0.00 0.00 0.00 0.00 0.00 0.00 0.00 0.00 0.00 0.00 0.00 0.00 0.00 0.00 0.00 0.00 0.00 0.00 0.00 0.00 0.00 0.00
0.00 0.00 0.00 0.00 0.00 0.00 0.00 0.00 0.00 0.00 0.00 0.00 0.00 0.00 0.00 0.00 0.00 0.00 0.00 0.00 0.00 0.00 0.00 0.00 0.00 0.00 0.00 0.00 0.00 0.00 0.00 0.00 0.00 0.00 0.00 0.00 0.00 0.00 0.00 0.00 0.00 0.00 0.00 0.00 0.00 0.00 0.01 0.01 0.01
0.00 0.00 0.00 0.00 0.00 0.00 0.00 0.00 0.00 0.00 0.00 0.00 0.00 0.00 0.00 0.00 0.00 0.00 0.00 0.00 0.00 0.00 0.00 0.00 0.00 0.00 0.00 0.00 0.00 0.00 0.00 0.00 0.00 0.00 0.00 0.00 0.00 0.00 0.00 0.00 0.00 0.00 0.00 0.00 0.00 0.00 0.01 0.01 0.01
0.00 0.00 0.00 0.00 0.00 0.00 0.00 0.00 0.00 0.00 0.00 0.00 0.00 0.00 0.00 0.00 0.00 0.00 0.00 0.00 0.00 0.00 0.00 0.00 0.00 0.00 0.00 0.00 0.00 0.00 0.00 0.00 0.00 0.00 0.00 0.00 0.00 0.00 0.00 0.00 0.00 0.00 0.00 0.01 0.01 0.01 0.01 0.01 0.01
0.00 0.00 0.00 0.00 0.00 0.00 0.00 0.00 0.00 0.00 0.00 0.00 0.00 0.00 0.00 0.00 0.00 0.00 0.00 0.00 0.00 0.00 0.00 0.00 0.00 0.00 0.00 0.00 0.00 0.00 0.00 0.00 0.00 0.00 0.00 0.00 0.00 0.00 0.00 0.00 0.00 0.00 0.00 0.00 0.00 0.01 0.01 0.01 0.01
0.00 0.00 0.00 0.00 0.00 0.00 0.00 0.00 0.00 0.00 0.00 0.00 0.00 0.00 0.00 0.00 0.00 0.00 0.00 0.00 0.00 0.00 0.00 0.00 0.00 0.00 0.00 0.00 0.00 0.00 0.00 0.01 0.01 0.01 0.01 0.02 0.02 0.01 0.00 0.00 0.00 0.00 0.00 0.00 0.00 0.01 0.01 0.02 0.03
0.00 0.00 0.00 0.00 0.00 0.00 0.00 0.00 0.00 0.00 0.00 0.00 0.00 0.00 0.00 0.00 0.00 0.00 0.00 0.00 0.00 0.00 0.00 0.00 0.00 0.00 0.00 0.00 0.00 0.00 0.00 0.01 0.01 0.01 0.02 0.03 0.02 0.02 0.01 0.01 0.00 0.00 0.00 0.00 0.01 0.03 0.04 0.07 0.09
0.00 0.00 0.00 0.00 0.00 0.00 0.00 0.00 0.00 0.00 0.00 0.00 0.00 0.00 0.00 0.00 0.00 0.00 0.00 0.00 0.00 0.00 0.00 0.00 0.00 0.00 0.00 0.00 0.00 0.00 0.00 0.00 0.00 0.01 0.01 0.02 0.02 0.01 0.01 0.01 0.00 0.00 0.00 0.00 0.01 0.01 0.04 0.10 0.10
0.00 0.00 0.00 0.00 0.00 0.00 0.00 0.00 0.00 0.00 0.00 0.00 0.00 0.00 0.00 0.00 0.00 0.00 0.00 0.00 0.00 0.00 0.00 0.00 0.00 0.00 0.01 0.01 0.01 0.00 0.00 0.00 0.00 0.01 0.01 0.01 0.01 0.01 0.01 0.02 0.02 0.02 0.02 0.03 0.04 0.06 0.09 0.13 0.13
0.00 0.00 0.00 0.00 0.00 0.00 0.00 0.00 0.00 0.00 0.00 0.00 0.00 0.00 0.00 0.00 0.00 0.00 0.00 0.00 0.00 0.00 0.01 0.02 0.02 0.01 0.01 0.01 0.01 0.00 0.00 0.01 0.00 0.01 0.01 0.01 0.02 0.04 0.05 0.04 0.04 0.04 0.06 0.08 0.08 0.10 0.15 0.16 0.16
0.00 0.00 0.00 0.00 0.00 0.00 0.00 0.00 0.00 0.00 0.00 0.00 0.00 0.00 0.00 0.00 0.00 0.00 0.00 0.00 0.00 0.00 0.01 0.03 0.04 0.03 0.02 0.02 0.01 0.01 0.01 0.02 0.03 0.04 0.06 0.08 0.09 0.11 0.14 0.11 0.08 0.09 0.11 0.10 0.09 0.13 0.17 0.18 0.16
0.00 0.00 0.00 0.00 0.00 0.00 0.00 0.00 0.00 0.00 0.00 0.00 0.00 0.00 0.00 0.00 0.00 0.00 0.00 0.00 0.00 0.00 0.02 0.04 0.05 0.04 0.03 0.03 0.02 0.03 0.03 0.04 0.05 0.07 0.08 0.12 0.16 0.20 0.17 0.12 0.09 0.13 0.14 0.11 0.12 0.15 0.19 0.19 0.19
0.00 0.00 0.00 0.00 0.00 0.00 0.00 0.00 0.00 0.00 0.00 0.00 0.00 0.00 0.00 0.00 0.00 0.00 0.00 0.00 0.01 0.02 0.04 0.05 0.03 0.02 0.02 0.03 0.03 0.03 0.02 0.03 0.04 0.06 0.08 0.10 0.14 0.16 0.15 0.09 0.08 0.13 0.16 0.14 0.16 0.18 0.21 0.21 0.19
0.00 0.00 0.00 0.00 0.00 0.00 0.00 0.00 0.00 0.00 0.00 0.00 0.00 0.00 0.00 0.00 0.00 0.00 0.00 0.01 0.02 0.04 0.05 0.04 0.03 0.04 0.04 0.03 0.02 0.01 0.01 0.01 0.03 0.04 0.05 0.06 0.07 0.09 0.10 0.07 0.07 0.13 0.14 0.14 0.16 0.17 0.22 0.22 0.24
0.00 0.00 0.00 0.00 0.00 0.00 0.00 0.00 0.00 0.00 0.00 0.00 0.00 0.00 0.00 0.00 0.00 0.00 0.00 0.02 0.03 0.03 0.03 0.03 0.03 0.03 0.01 0.01 0.01 0.00 0.00 0.01 0.01 0.02 0.02 0.02 0.02 0.04 0.05 0.05 0.06 0.09 0.09 0.09 0.12 0.17 0.19 0.20 0.31
0.00 0.00 0.00 0.00 0.00 0.00 0.00 0.00 0.00 0.00 0.00 0.00 0.00 0.00 0.00 0.00 0.00 0.00 0.01 0.02 0.02 0.02 0.01 0.01 0.01 0.01 0.00 0.00 0.00 0.00 0.00 0.00 0.00 0.00 0.00 0.00 0.01 0.01 0.02 0.02 0.03 0.04 0.05 0.05 0.07 0.11 0.12 0.11 0.22
0.00 0.00 0.00 0.00 0.00 0.00 0.00 0.00 0.00 0.00 0.00 0.00 0.00 0.01 0.01 0.01 0.02 0.02 0.03 0.02 0.02 0.01 0.01 0.00 0.00 0.00 0.00 0.00 0.00 0.00 0.00 0.00 0.00 0.00 0.00 0.00 0.00 0.00 0.00 0.00 0.01 0.01 0.01 0.01 0.02 0.04 0.06 0.07 0.12
0.00 0.00 0.00 0.00 0.00 0.00 0.00 0.00 0.00 0.00 0.00 0.00 0.01 0.02 0.03 0.03 0.04 0.04 0.04 0.03 0.02 0.01 0.00 0.00 0.00 0.00 0.00 0.00 0.01 0.01 0.00 0.00 0.00 0.00 0.00 0.00 0.00 0.00 0.00 0.00 0.00 0.00 0.00 0.00 0.01 0.02 0.03 0.05 0.06
0.00 0.00 0.00 0.00 0.00 0.00 0.00 0.00 0.00 0.00 0.00 0.00 0.02 0.03 0.05 0.06 0.05 0.05 0.04 0.03 0.03 0.01 0.00 0.00 0.00 0.01 0.00 0.01 0.01 0.01 0.00 0.00 0.00 0.00 0.00 0.00 0.00 0.00 0.00 0.00 0.00 0.00 0.00 0.01 0.01 0.01 0.02 0.03 0.03
0.00 0.00 0.00 0.00 0.00 0.00 0.00 0.00 0.00 0.00 0.00 0.00 0.01 0.03 0.05 0.06 0.06 0.05 0.03 0.03 0.02 0.01 0.01 0.00 0.00 0.01 0.01 0.01 0.02 0.02 0.01 0.01 0.00 0.00 0.00 0.00 0.00 0.00 0.00 0.00 0.00 0.00 0.01 0.01 0.01 0.02 0.02 0.03 0.03
0.00 0.00 0.00 0.00 0.00 0.00 0.00 0.00 0.00 0.00 0.00 0.00 0.01 0.02 0.03 0.04 0.05 0.05 0.04 0.02 0.01 0.01 0.01 0.01 0.00 0.00 0.01 0.01 0.01 0.02 0.02 0.01 0.01 0.00 0.00 0.00 0.00 0.00 0.00 0.00 0.00 0.01 0.01 0.01 0.01 0.02 0.03 0.04 0.05
0.00 0.00 0.00 0.00 0.00 0.00 0.00 0.00 0.00 0.00 0.00 0.00 0.00 0.01 0.02 0.03 0.03 0.04 0.03 0.02 0.02 0.02 0.02 0.01 0.00 0.00 0.00 0.00 0.01 0.01 0.02 0.02 0.01 0.00 0.00 0.00 0.00 0.00 0.00 0.00 0.00 0.00 0.01 0.01 0.02 0.02 0.03 0.04 0.05
0.00 0.00 0.00 0.00 0.00 0.00 0.00 0.00 0.00 0.00 0.00 0.00 0.00 0.00 0.01 0.01 0.02 0.02 0.02 0.02 0.02 0.01 0.01 0.01 0.01 0.00 0.00 0.00 0.00 0.00 0.01 0.01 0.01 0.01 0.00 0.00 0.00 0.00 0.00 0.00 0.00 0.00 0.01 0.01 0.01 0.02 0.03 0.05 0.06
0.00 0.00 0.00 0.00 0.00 0.00 0.00 0.00 0.00 0.00 0.00 0.00 0.00 0.00 0.00 0.01 0.01 0.01 0.01 0.01 0.01 0.01 0.01 0.00 0.00 0.00 0.00 0.00 0.00 0.00 0.00 0.00 0.01 0.01 0.01 0.01 0.00 0.00 0.00 0.00 0.00 0.00 0.01 0.01 0.02 0.03 0.04 0.06 0.07
0.00 0.00 0.00 0.00 0.00 0.00 0.00 0.00 0.00 0.00 0.00 0.00 0.00 0.00 0.00 0.00 0.00 0.00 0.01 0.01 0.01 0.01 0.00 0.00 0.00 0.00 0.00 0.00 0.00 0.00 0.00 0.00 0.00 0.00 0.01 0.01 0.01 0.01 0.00 0.00 0.00 0.00 0.01 0.01 0.03 0.04 0.06 0.07 0.07
0.00 0.00 0.00 0.00 0.00 0.00 0.00 0.00 0.00 0.00 0.00 0.00 0.00 0.00 0.00 0.00 0.00 0.01 0.01 0.01 0.01 0.01 0.01 0.01 0.01 0.00 0.00 0.00 0.00 0.00 0.00 0.00 0.00 0.00 0.01 0.02 0.02 0.01 0.00 0.00 0.00 0.00 0.00 0.01 0.03 0.05 0.08 0.09 0.09
MSLP
1009.75 1010.05 1010.39 1010.69 1010.88 1010.91 1010.78 1010.53 1010.22 1009.93 1009.74 1009.66 1009.70 1009.82 1009.95 1010.04 1010.06 1010.00 1009.90 1009.85 1009.91 1010.14 1010.57 1011.18 1011.90 1012.64 1013.31 1013.83 1014.16 1014.33 1014.37 1014.37 1014.39 1014.50 1014.71 1015.02 1015.36 1015.70 1015.96 1016.12 1016.18 1016.17 1016.13 1016.11 1016.15 1016.25 1016.42 1016.62 1016.79
1009.82 1010.16 1010.53 1010.83 1011.00 1010.99 1010.80 1010.47 1010.09 1009.72 1009.45 1009.31 1009.30 1009.39 1009.51 1009.61 1009.66 1009.65 1009.62 1009.64 1009.78 1010.09 1010.59 1011.26 1012.03 1012.80 1013.50 1014.03 1014.38 1014.55 1014.59 1014.59 1014.61 1014.72 1014.92 1015.21 1015.53 1015.83 1016.06 1016.19 1016.23 1016.20 1016.16 1016.16 1016.22 1016.36 1016.56 1016.78 1016.96
1009.88 1010.26 1010.64 1010.93 1011.06 1011.00 1010.76 1010.38 1009.94 1009.52 1009.21 1009.04 1009.01 1009.08 1009.21 1009.34 1009.43 1009.47 1009.50 1009.58 1009.77 1010.12 1010.65 1011.33 1012.12 1012.90 1013.59 1014.13 1014.49 1014.68 1014.75 1014.77 1014.81 1014.93 1015.13 1015.40 1015.69 1015.96 1016.15 1016.24 1016.25 1016.22 1016.19 1016.20 1016.30 1016.48 1016.70 1016.93 1017.10
1009.93 1010.33 1010.70 1010.96 1011.06 1010.95 1010.66 1010.24 1009.77 1009.33 1009.01 1008.83 1008.81 1008.91 1009.07 1009.23 1009.36 1009.45 1009.52 1009.63 1009.85 1010.21 1010.73 1011.40 1012.15 1012.91 1013.59 1014.13 1014.50 1014.71 1014.81 1014.87 1014.95 1015.09 1015.30 1015.55 1015.82 1016.04 1016.19 1016.25 1016.24 1016.20 1016.18 1016.23 1016.36 1016.58 1016.82 1017.05 1017.21
1009.99 1010.37 1010.72 1010.94 1010.98 1010.83 1010.51 1010.06 1009.58 1009.15 1008.84 1008.69 1008.70 1008.83 1009.04 1009.24 1009.42 1009.54 1009.65 1009.78 1009.99 1010.33 1010.82 1011.44 1012.14 1012.85 1013.50 1014.03 1014.41 1014.65 1014.79 1014.90 1015.01 1015.18 1015.39 1015.63 1015.86 1016.04 1016.15 1016.18 1016.15 1016.11 1016.12 1016.19 1016.36 1016.60 1016.86 1017.09 1017.23
1010.07 1010.42 1010.71 1010.87 1010.86 1010.66 1010.30 1009.84 1009.36 1008.95 1008.68 1008.58 1008.64 1008.82 1009.07 1009.33 1009.55 1009.71 1009.83 1009.97 1010.16 1010.46 1010.90 1011.45 1012.09 1012.75 1013.35 1013.86 1014.24 1014.51 1014.69 1014.83 1014.98 1015.16 1015.37 1015.59 1015.79 1015.93 1016.00 1016.00 1015.96 1015.92 1015.94 1016.04 1016.24 1016.49 1016.76 1016.98 1017.10
1010.19 1010.48 1010.70 1010.78 1010.70 1010.44 1010.05 1009.58 1009.12 1008.74 1008.51 1008.46 1008.58 1008.82 1009.13 1009.44 1009.70 1009.89 1010.03 1010.16 1010.33 1010.59 1010.97 1011.46 1012.02 1012.61 1013.17 1013.65 1014.03 1014.31 1014.51 1014.68 1014.85 1015.03 1015.23 1015.43 1015.59 1015.69 1015.73 1015.70 1015.64 1015.60 1015.63 1015.74 1015.94 1016.19 1016.46 1016.66 1016.76
1010.36 1010.58 1010.70 1010.69 1010.53 1010.21 1009.78 1009.30 1008.85 1008.51 1008.32 1008.33 1008.50 1008.80 1009.16 1009.51 1009.81 1010.04 1010.20 1010.33 1010.49 1010.71 1011.03 1011.46 1011.95 1012.48 1012.99 1013.44 1013.80 1014.07 1014.28 1014.46 1014.63 1014.80 1014.98 1015.14 1015.27 1015.34 1015.33 1015.28 1015.21 1015.16 1015.18 1015.28 1015.46 1015.70 1015.94 1016.13 1016.21
1010.57 1010.70 1010.72 1010.62 1010.37 1009.99 1009.52 1009.03 1008.58 1008.26 1008.12 1008.16 1008.38 1008.73 1009.13 1009.54 1009.88 1010.14 1010.32 1010.46 1010.61 1010.81 1011.10 1011.47 1011.91 1012.38 1012.84 1013.24 1013.58 1013.83 1014.03 1014.19 1014.34 1014.49 1014.64 1014.77 1014.86 1014.89 1014.87 1014.79 1014.70 1014.63 1014.63 1014.70 1014.85 1015.05 1015.25 1015.41 1015.46
1010.80 1010.83 1010.76 1010.56 1010.24 1009.80 1009.29 1008.78 1008.33 1008.03 1007.90 1007.98 1008.23 1008.61 1009.05 1009.49 1009.87 1010.17 1010.39 1010.55 1010.71 1010.90 1011.15 1011.49 1011.88 1012.30 1012.71 1013.08 1013.37 1013.60 1013.76 1013.90 1014.01 1014.13 1014.24 1014.34 1014.40 1014.41 1014.37 1014.28 1014.17 1014.08 1014.04 1014.07 1014.17 1014.31 1014.46 1014.58 1014.61
1011.01 1010.96 1010.81 1010.53 1010.14 1009.65 1009.11 1008.58 1008.13 1007.83 1007.71 1007.79 1008.05 1008.45 1008.91 1009.38 1009.80 1010.13 1010.38 1010.57 1010.75 1010.94 1011.19 1011.50 1011.86 1012.25 1012.61 1012.93 1013.19 1013.37 1013.50 1013.60 1013.68 1013.76 1013.84 1013.91 1013.95 1013.95 1013.90 1013.80 1013.67 1013.56 1013.48 1013.46 1013.50 1013.58 1013.67 1013.74 1013.75
1011.20 1011.08 1010.85 1010.52 1010.08 1009.56 1009.00 1008.46 1008.00 1007.69 1007.56 1007.63 1007.88 1008.28 1008.74 1009.22 1009.66 1010.02 1010.30 1010.53 1010.72 1010.94 1011.19 1011.49 1011.83 1012.18 1012.52 1012.80 1013.02 1013.17 1013.26 1013.31 1013.36 1013.41 1013.46 1013.51 1013.55 1013.54 1013.49 1013.39 1013.25 1013.12 1013.01 1012.93 1012.91 1012.93 1012.97 1012.99 1012.98
1011.33 1011.17 1010.90 1010.53 1010.07 1009.54 1008.97 1008.43 1007.96 1007.64 1007.49 1007.53 1007.75 1008.11 1008.55 1009.02 1009.46 1009.84 1010.14 1010.39 1010.62 1010.85 1011.11 1011.41 1011.75 1012.08 1012.40 1012.66 1012.85 1012.97 1013.03 1013.05 1013.07 1013.09 1013.13 1013.17 1013.20 1013.19 1013.15 1013.05 1012.92 1012.77 1012.62 1012.51 1012.44 1012.40 1012.39 1012.38 1012.35
1011.43 1011.23 1010.95 1010.57 1010.12 1009.60 1009.05 1008.51 1008.04 1007.69 1007.51 1007.50 1007.67 1007.98 1008.37 1008.81 1009.23 1009.60 1009.91 1010.17 1010.41 1010.66 1010.94 1011.25 1011.58 1011.92 1012.23 1012.48 1012.66 1012.77 1012.81 1012.82 1012.82 1012.82 1012.85 1012.88 1012.91 1012.91 1012.87 1012.78 1012.64 1012.48 1012.31 1012.17 1012.06 1011.99 1011.94 1011.91 1011.88
1011.51 1011.30 1011.02 1010.67 1010.24 1009.76 1009.24 1008.72 1008.24 1007.87 1007.65 1007.58 1007.67 1007.91 1008.23 1008.61 1008.98 1009.32 1009.62 1009.88 1010.13 1010.39 1010.68 1011.00 1011.34 1011.69 1012.01 1012.27 1012.45 1012.57 1012.61 1012.62 1012.61 1012.60 1012.61 1012.64 1012.66 1012.66 1012.61 1012.52 1012.38 1012.20 1012.02 1011.86 1011.73 1011.64 1011.58 1011.54 1011.51
1011.59 1011.40 1011.14 1010.83 1010.45 1010.02 1009.54 1009.04 1008.57 1008.18 1007.90 1007.77 1007.78 1007.92 1008.16 1008.45 1008.76 1009.06 1009.32 1009.56 1009.80 1010.06 1010.35 1010.67 1011.03 1011.39 1011.73 1012.01 1012.22 1012.36 1012.42 1012.44 1012.43 1012.42 1012.42 1012.43 1012.43 1012.41 1012.36 1012.25 1012.10 1011.91 1011.72 1011.54 1011.40 1011.30 1011.24 1011.20 1011.17
1011.71 1011.53 1011.32 1011.06 1010.75 1010.38 1009.95 1009.48 1009.02 1008.60 1008.27 1008.07 1007.99 1008.04 1008.18 1008.39 1008.62 1008.85 1009.07 1009.27 1009.48 1009.72 1010.00 1010.32 1010.69 1011.06 1011.42 1011.74 1011.98 1012.14 1012.24 1012.27 1012.27 1012.26 1012.25 1012.24 1012.22 1012.17 1012.09 1011.96 1011.79 1011.59 1011.38 1011.19 1011.04 1010.94 1010.87 1010.84 1010.81
1011.85 1011.71 1011.56 1011.37 1011.13 1010.83 1010.45 1010.02 1009.56 1009.12 1008.75 1008.47 1008.32 1008.27 1008.33 1008.45 1008.60 1008.76 1008.91 1009.07 1009.24 1009.44 1009.69 1010.00 1010.35 1010.74 1011.11 1011.45 1011.73 1011.93 1012.05 1012.11 1012.13 1012.12 1012.10 1012.06 1012.02 1011.94 1011.83 1011.67 1011.48 1011.25 1011.03 1010.83 1010.66 1010.55 1010.48 1010.44 1010.40
1012.01 1011.93 1011.84 1011.73 1011.57 1011.33 1011.01 1010.61 1010.17 1009.72 1009.31 1008.98 1008.75 1008.64 1008.61 1008.65 1008.73 1008.82 1008.92 1009.01 1009.13 1009.28 1009.49 1009.76 1010.09 1010.46 1010.84 1011.19 1011.49 1011.71 1011.87 1011.95 1011.99 1011.98 1011.95 1011.90 1011.83 1011.74 1011.60 1011.42 1011.20 1010.96 1010.71 1010.49 1010.31 1010.18 1010.09 1010.02 1009.95
1012.18 1012.16 1012.15 1012.12 1012.03 1011.87 1011.60 1011.23 1010.80 1010.35 1009.92 1009.56 1009.29 1009.12 1009.04 1009.03 1009.05 1009.08 1009.12 1009.15 1009.20 1009.29 1009.44 1009.65 1009.93 1010.27 1010.62 1010.96 1011.26 1011.51 1011.68 1011.78 1011.83 1011.83 1011.81 1011.76 1011.68 1011.57 1011.42 1011.23 1011.00 1010.75 1010.49 1010.25 1010.04 1009.87 1009.73 1009.62 1009.50
1012.31 1012.37 1012.44 1012.49 1012.48 1012.38 1012.16 1011.84 1011.43 1010.99 1010.56 1010.19 1009.91 1009.72 1009.62 1009.57 1009.56 1009.55 1009.53 1009.51 1009.49 1009.51 1009.57 1009.71 1009.92 1010.19 1010.49 1010.80 1011.08 1011.31 1011.48 1011.59 1011.65 1011.66 1011.65 1011.61 1011.54 1011.45 1011.31 1011.13 1010.91 1010.66 1010.40 1010.13 1009.88 1009.66 1009.46 1009.28 1009.09
1012.42 1012.55 1012.70 1012.83 1012.89 1012.84 1012.68 1012.40 1012.03 1011.62 1011.22 1010.87 1010.60 1010.42 1010.32 1010.27 1010.23 1010.20 1010.14 1010.06 1009.98 1009.92 1009.90 1009.95 1010.07 1010.25 1010.47 1010.71 1010.94 1011.13 1011.28 1011.38 1011.44 1011.46 1011.46 1011.44 1011.40 1011.34 1011.24 1011.10 1010.91 1010.67 1010.41 1010.12 1009.83 1009.55 1009.27 1008.99 1008.72
1012.47 1012.68 1012.90 1013.10 1013.22 1013.24 1013.13 1012.90 1012.59 1012.23 1011.88 1011.57 1011.34 1011.20 1011.12 1011.08 1011.04 1010.99 1010.91 1010.78 1010.64 1010.50 1010.40 1010.35 1010.36 1010.44 1010.57 1010.72 1010.87 1011.00 1011.10 1011.16 1011.19 1011.21 1011.22 1011.22 1011.22 1011.20 1011.16 1011.06 1010.92 1010.71 1010.45 1010.15 1009.82 1009.47 1009.10 1008.74 1008.37
1012.50 1012.76 1013.04 1013.29 1013.47 1013.55 1013.50 1013.34 1013.10 1012.81 1012.53 1012.30 1012.13 1012.03 1011.99 1011.97 1011.94 1011.88 1011.77 1011.61 1011.42 1011.21 1011.03 1010.89 1010.80 1010.77 1010.79 1010.83 1010.88 1010.92 1010.94 1010.94 1010.93 1010.92 1010.92 1010.94 1010.96 1010.98 1010.99 1010.94 1010.84 1010.67 1010.43 1010.11 1009.74 1009.33 1008.88 1008.43 1007.98
1012.50 1012.80 1013.12 1013.42 1013.65 1013.79 1013.81 1013.73 1013.58 1013.38 1013.19 1013.04 1012.94 1012.90 1012.89 1012.90 1012.88 1012.81 1012.68 1012.49 1012.25 1012.00 1011.74 1011.52 1011.35 1011.22 1011.13 1011.07 1011.00 1010.93 1010.85 1010.76 1010.68 1010.61 1010.57 1010.57 1010.59 1010.63 1010.67 1010.67 1010.60 1010.46 1010.23 1009.90 1009.49 1009.02 1008.51 1007.99 1007.48
1012.50 1012.81 1013.16 1013.49 1013.77 1013.97 1014.07 1014.09 1014.03 1013.94 1013.85 1013.79 1013.76 1013.77 1013.80 1013.82 1013.80 1013.72 1013.57 1013.36 1013.08 1012.79 1012.49 1012.22 1011.97 1011.76 1011.58 1011.41 1011.23 1011.05 1010.85 1010.64 1010.45 1010.29 1010.18 1010.13 1010.12 1010.15 1010.18 1010.20 1010.15 1010.02 1009.78 1009.45 1009.01 1008.51 1007.95 1007.38 1006.83
1012.50 1012.81 1013.17 1013.52 1013.85 1014.11 1014.30 1014.41 1014.47 1014.49 1014.51 1014.53 1014.57 1014.62 1014.67 1014.69 1014.66 1014.56 1014.39 1014.14 1013.85 1013.54 1013.22 1012.91 1012.62 1012.36 1012.11 1011.84 1011.56 1011.26 1010.93 1010.60 1010.29 1010.01 1009.80 1009.65 1009.58 1009.55 1009.55 1009.54 1009.49 1009.35 1009.10 1008.76 1008.30 1007.77 1007.19 1006.60 1006.04
1012.52 1012.81 1013.16 1013.54 1013.90 1014.23 1014.51 1014.73 1014.90 1015.03 1015.14 1015.25 1015.34 1015.42 1015.46 1015.46 1015.40 1015.27 1015.07 1014.80 1014.50 1014.18 1013.85 1013.54 1013.24 1012.95 1012.64 1012.31 1011.95 1011.53 1011.09 1010.63 1010.19 1009.78 1009.45 1009.19 1009.01 1008.91 1008.84 1008.78 1008.69 1008.52 1008.26 1007.90 1007.44 1006.91 1006.33 1005.75 1005.22
1012.55 1012.82 1013.17 1013.56 1013.97 1014.37 1014.73 1015.05 1015.32 1015.55 1015.74 1015.90 1016.02 1016.10 1016.12 1016.09 1015.98 1015.80 1015.56 1015.28 1014.97 1014.65 1014.34 1014.04 1013.74 1013.44 1013.11 1012.74 1012.31 1011.82 1011.28 1010.71 1010.15 1009.62 1009.16 1008.79 1008.50 1008.30 1008.15 1008.02 1007.87 1007.67 1007.39 1007.02 1006.57 1006.05 1005.51 1004.97 1004.48
1012.62 1012.88 1013.22 1013.64 1014.08 1014.53 1014.97 1015.37 1015.72 1016.02 1016.26 1016.45 1016.57 1016.63 1016.61 1016.52 1016.35 1016.13 1015.85 1015.54 1015.22 1014.91 1014.61 1014.33 1014.05 1013.76 1013.43 1013.03 1012.57 1012.02 1011.42 1010.77 1010.12 1009.50 1008.94 1008.46 1008.08 1007.79 1007.55 1007.35 1007.15 1006.92 1006.62 1006.26 1005.83 1005.35 1004.86 1004.39 1003.97
Thickness
5844 5850 5853 5849 5845 5848 5833 5840 5849 5850 5854 5861 5862 5859 5852 5847 5841 5832 5850 5860 5854 5847 5837 5824 5819 5815 5812 5809 5806 5803 5800 5796 5792 5789 5786 5783 5781 5778 5776 5774 5772 5770 5767 5765 5763 5761 5759 5757 5755
5853 5853 5850 5849 5849 5831 5827 5843 5847 5850 5857 5864 5863 5858 5852 5849 5852 5849 5852 5854 5852 5845 5836 5827 5818 5814 5811 5808 5805 5801 5798 5794 5791 5788 5785 5782 5779 5777 5775 5773 5771 5769 5767 5765 5762 5760 5758 5756 5754
5853 5853 5849 5854 5845 5834 5831 5846 5849 5858 5865 5863 5857 5858 5852 5847 5849 5850 5855 5854 5849 5842 5834 5826 5817 5813 5810 5806 5803 5799 5796 5792 5789 5786 5783 5781 5778 5776 5774 5772 5770 5768 5766 5764 5762 5759 5757 5755 5753
5852 5851 5852 5849 5838 5842 5844 5851 5857 5858 5861 5863 5859 5851 5852 5853 5854 5856 5855 5852 5846 5839 5833 5824 5816 5811 5808 5804 5800 5797 5794 5790 5787 5784 5781 5779 5777 5775 5773 5771 5769 5768 5766 5764 5762 5759 5757 5755 5752
5852 5850 5845 5841 5839 5847 5855 5859 5861 5856 5855 5859 5858 5847 5844 5852 5858 5856 5852 5849 5842 5837 5832 5822 5814 5809 5805 5802 5798 5795 5791 5788 5785 5782 5780 5778 5776 5774 5772 5771 5769 5767 5766 5764 5762 5760 5757 5755 5753
5847 5849 5838 5833 5835 5846 5856 5862 5863 5858 5855 5857 5856 5848 5843 5851 5852 5851 5850 5847 5844 5837 5832 5821 5811 5807 5803 5800 5796 5793 5790 5787 5784 5781 5779 5777 5775 5773 5771 5770 5768 5767 5765 5764 5762 5760 5758 5756 5754
5839 5840 5835 5834 5833 5839 5850 5864 5861 5856 5853 5857 5861 5848 5845 5849 5853 5852 5848 5845 5843 5838 5831 5822 5813 5806 5801 5797 5794 5791 5788 5785 5782 5780 5778 5776 5774 5772 5771 5769 5768 5767 5765 5764 5762 5761 5759 5757 5755
5843 5839 5833 5835 5832 5836 5853 5862 5864 5860 5856 5866 5865 5849 5845 5849 5852 5850 5844 5840 5838 5834 5830 5822 5817 5810 5803 5798 5792 5789 5786 5783 5780 5778 5776 5774 5772 5771 5770 5769 5768 5766 5765 5764 5763 5761 5760 5758 5756
5839 5827 5828 5833 5833 5839 5853 5854 5862 5870 5863 5861 5865 5861 5861 5856 5850 5842 5836 5833 5830 5827 5826 5822 5818 5810 5804 5800 5795 5788 5784 5781 5778 5777 5774 5772 5774 5776 5774 5771 5769 5766 5764 5763 5762 5761 5760 5759 5758
5830 5822 5831 5837 5842 5844 5847 5850 5857 5860 5855 5853 5855 5854 5855 5850 5842 5835 5831 5826 5822 5820 5820 5818 5814 5808 5802 5799 5795 5790 5787 5784 5779 5779 5778 5775 5775 5774 5774 5772 5767 5765 5763 5762 5762 5761 5760 5759 5762
5826 5822 5830 5836 5843 5844 5845 5851 5858 5853 5849 5855 5853 5850 5848 5844 5838 5833 5830 5827 5822 5818 5816 5815 5809 5803 5799 5795 5793 5790 5788 5785 5781 5777 5774 5772 5771 5770 5770 5770 5769 5766 5764 5764 5765 5763 5763 5764 5764
5817 5823 5825 5831 5840 5839 5841 5847 5851 5853 5856 5864 5863 5858 5848 5842 5838 5834 5830 5826 5823 5817 5814 5812 5807 5799 5794 5791 5789 5785 5783 5781 5779 5776 5771 5770 5768 5767 5767 5766 5767 5766 5766 5765 5764 5764 5765 5763 5762
5809 5816 5825 5831 5835 5838 5839 5841 5843 5850 5860 5862 5859 5853 5846 5843 5840 5836 5833 5827 5821 5814 5811 5808 5802 5795 5789 5784 5781 5779 5777 5777 5774 5769 5767 5764 5764 5764 5764 5763 5761 5761 5762 5762 5760 5761 5761 5759 5760
5808 5812 5819 5827 5830 5834 5830 5837 5838 5845 5853 5852 5850 5846 5845 5842 5839 5833 5827 5821 5816 5811 5808 5805 5797 5792 5785 5780 5775 5773 5772 5769 5768 5766 5764 5761 5760 5760 5759 5758 5758 5757 5757 5757 5757 5756 5755 5755 5755
5806 5804 5814 5822 5825 5829 5828 5823 5828 5839 5845 5842 5843 5841 5839 5838 5835 5828 5824 5818 5815 5809 5805 5800 5795 5790 5783 5778 5774 5771 5769 5767 5765 5763 5759 5757 5755 5755 5753 5753 5754 5755 5753 5752 5751 5751 5750 5749 5750
5799 5796 5797 5811 5818 5823 5817 5811 5821 5836 5837 5833 5834 5832 5829 5827 5827 5825 5821 5815 5813 5808 5801 5796 5793 5787 5781 5775 5770 5769 5766 5763 5761 5758 5756 5754 5752 5750 5749 5749 5751 5751 5749 5748 5747 5746 5744 5745 5744
5785 5785 5790 5797 5810 5815 5813 5806 5813 5827 5828 5823 5824 5824 5821 5817 5818 5818 5816 5812 5807 5802 5795 5790 5787 5782 5777 5772 5766 5763 5760 5758 5756 5755 5753 5751 5748 5746 5745 5746 5747 5745 5744 5744 5743 5743 5740 5739 5739
5773 5779 5780 5785 5796 5802 5799 5798 5806 5814 5815 5814 5815 5814 5811 5809 5809 5811 5809 5807 5801 5796 5790 5785 5780 5775 5771 5767 5761 5758 5755 5755 5753 5751 5748 5745 5744 5742 5740 5741 5742 5741 5740 5739 5738 5736 5735 5734 5734
5772 5772 5772 5778 5789 5789 5786 5788 5795 5803 5804 5803 5804 5804 5803 5802 5804 5803 5801 5798 5793 5788 5783 5778 5773 5768 5764 5760 5756 5752 5751 5750 5749 5747 5744 5741 5738 5737 5734 5735 5735 5734 5734 5734 5733 5732 5730 5729 5729
5768 5765 5768 5774 5782 5779 5776 5780 5790 5792 5791 5792 5793 5793 5792 5792 5792 5790 5789 5788 5785 5779 5774 5770 5765 5763 5759 5755 5751 5748 5746 5745 5744 5742 5737 5734 5733 5730 5731 5729 5728 5729 5727 5726 5725 5724 5723 5726 5725
5763 5764 5764 5763 5771 5776 5770 5771 5778 5782 5784 5785 5785 5785 5786 5783 5781 5779 5778 5777 5774 5770 5766 5764 5760 5756 5753 5750 5748 5743 5739 5738 5738 5736 5733 5730 5727 5725 5723 5722 5721 5721 5720 5721 5719 5717 5716 5717 5719
5758 5767 5763 5759 5755 5763 5762 5754 5767 5771 5770 5771 5772 5773 5772 5772 5772 5768 5765 5762 5761 5759 5759 5756 5752 5749 5747 5744 5742 5738 5733 5731 5731 5729 5728 5725 5722 5720 5718 5716 5715 5713 5713 5713 5711 5713 5711 5709 5711
5761 5765 5761 5758 5753 5751 5757 5752 5763 5763 5754 5756 5758 5759 5760 5759 5757 5754 5751 5749 5748 5749 5749 5747 5744 5742 5740 5737 5734 5730 5729 5729 5729 5725 5722 5719 5719 5716 5714 5711 5709 5707 5706 5705 5703 5702 5701 5703 5704
5765 5759 5757 5756 5754 5737 5747 5742 5745 5742 5734 5740 5744 5744 5744 5744 5743 5740 5739 5738 5737 5738 5739 5739 5736 5733 5732 5729 5727 5724 5723 5721 5720 5717 5716 5716 5716 5713 5711 5707 5704 5702 5701 5699 5697 5696 5696 5696 5697
5760 5747 5735 5735 5737 5738 5748 5739 5731 5728 5728 5729 5730 5730 5731 5730 5728 5725 5723 5722 5722 5723 5723 5725 5724 5722 5722 5721 5719 5718 5716 5715 5713 5712 5713 5710 5710 5709 5706 5703 5698 5696 5695 5693 5692 5691 5690 5691 5691
5754 5746 5726 5715 5723 5737 5745 5737 5728 5725 5723 5722 5721 5719 5717 5716 5714 5711 5710 5709 5708 5708 5708 5709 5708 5708 5709 5710 5710 5709 5708 5709 5711 5709 5707 5706 5705 5704 5701 5696 5693 5691 5690 5689 5688 5687 5687 5687 5688
5749 5749 5755 5737 5734 5726 5739 5736 5720 5721 5715 5711 5708 5706 5703 5702 5701 5699 5698 5697 5695 5694 5693 5693 5692 5692 5693 5695 5696 5697 5698 5698 5700 5699 5699 5701 5699 5698 5695 5691 5689 5687 5686 5685 5683 5683 5683 5683 5684
5752 5750 5741 5731 5714 5712 5729 5732 5731 5712 5703 5699 5695 5692 5691 5691 5689 5687 5685 5683 5681 5681 5679 5678 5677 5676 5677 5679 5680 5683 5684 5687 5688 5690 5691 5691 5691 5689 5688 5686 5684 5683 5682 5682 5680 5680 5681 5680 5680
5743 5741 5735 5735 5727 5709 5709 5722 5711 5701 5692 5688 5685 5682 5679 5677 5676 5673 5670 5668 5666 5665 5664 5662 5661 5661 5661 5662 5663 5665 5668 5672 5675 5678 5681 5682 5683 5682 5681 5680 5679 5678 5678 5678 5676 5677 5677 5677 5677
5746 5739 5733 5715 5714 5717 5709 5708 5697 5691 5686 5678 5673 5670 5667 5664 5662 5660 5657 5653 5650 5648 5646 5645 5644 5644 5645 5646 5647 5649 5652 5656 5660 5665 5668 5671 5673 5674 5674 5674 5673 5673 5673 5672 5672 5672 5673 5672 5673